FW8622 Weather Reports


time (UTC)temp
C
wind
direction
speed
KPH
gust
KPH
rain 1hr
cm
rain 24hr
cm
rain mn
cm
humidity
%
barometer
mb
20260506045047 10 0 0.0 4.8 0.00 0.00 0.00 84 1009.7
20260506044556 10 0 0.0 6.4 0.00 0.00 0.00 84 1009.7
20260506044047 10 293 0.0 6.4 0.00 0.00 0.00 84 1009.6
20260506043547 10 0 0.0 6.4 0.00 0.00 0.00 84 1009.7
20260506043055 10 305 0.0 6.4 0.00 0.00 0.00 84 1009.8
20260506042547 10 0 0.0 6.4 0.00 0.00 0.00 84 1009.7
20260506042047 10 309 0.0 3.2 0.00 0.00 0.00 84 1009.7
20260506041607 10 0 0.0 3.2 0.00 0.00 0.00 84 1009.8
20260506041046 10 0 0.0 3.2 0.00 0.00 0.00 84 1009.8
20260506040547 10 0 0.0 3.2 0.00 0.00 0.00 84 1009.8
20260506040100 10 0 0.0 3.2 0.00 0.00 0.00 84 1009.8
20260506035549 10 0 0.0 3.2 0.00 0.00 0.00 84 1009.8
20260506035048 10 0 0.0 3.2 0.00 0.00 0.00 84 1009.8
20260506034551 10 0 0.0 4.8 0.00 0.00 0.00 84 1009.8
20260506034045 10 0 0.0 4.8 0.00 0.00 0.00 84 1009.9
20260506033548 10 293 0.0 4.8 0.00 0.00 0.00 84 1009.9
20260506033052 10 291 0.0 4.8 0.00 0.00 0.00 84 1009.9
20260506032547 10 0 0.0 4.8 0.00 0.00 0.00 84 1010.0
20260506032045 10 0 0.0 4.8 0.00 0.00 0.00 84 1010.0
20260506031600 10 0 0.0 4.8 0.00 0.00 0.00 84 1010.0
20260506031047 10 0 0.0 4.8 0.00 0.00 0.00 84 1010.0
20260506030544 10 0 0.0 4.8 0.00 0.00 0.00 83 1010.2
20260506030054 10 300 0.0 4.8 0.00 0.00 0.00 83 1010.1
20260506025547 10 0 0.0 3.2 0.00 0.00 0.00 83 1010.1
20260506025047 10 299 0.0 3.2 0.00 0.00 0.00 83 1010.2
20260506024555 10 0 0.0 3.2 0.00 0.00 0.00 83 1010.2
20260506024049 10 0 0.0 4.8 0.00 0.00 0.00 83 1010.3
20260506023547 10 0 0.0 4.8 0.00 0.00 0.00 82 1010.3
20260506023056 10 295 0.0 3.2 0.00 0.00 0.00 82 1010.3
20260506022544 10 303 0.0 3.2 0.00 0.00 0.00 82 1010.3
20260506022045 10 0 0.0 3.2 0.00 0.00 0.00 82 1010.3
20260506021550 10 0 0.0 3.2 0.00 0.00 0.00 82 1010.3
20260506021048 10 0 0.0 3.2 0.00 0.00 0.00 82 1010.3
20260506020548 10 0 0.0 3.2 0.00 0.00 0.00 81 1010.3
20260506020122 10 0 0.0 3.2 0.00 0.00 0.00 81 1010.4
20260506015549 10 0 0.0 3.2 0.00 0.00 0.00 81 1010.3
20260506015046 10 0 0.0 3.2 0.00 0.00 0.00 81 1010.3
20260506014602 10 0 0.0 1.6 0.00 0.00 0.00 81 1010.4
20260506014045 10 0 0.0 3.2 0.00 0.00 0.00 80 1010.4
20260506013548 10 0 0.0 3.2 0.00 0.00 0.00 80 1010.3
20260506013103 10 0 0.0 4.8 0.00 0.00 0.00 80 1010.3
20260506012548 10 0 0.0 4.8 0.00 0.00 0.00 79 1010.4
20260506012045 10 0 0.0 4.8 0.00 0.00 0.00 79 1010.4
20260506011558 10 0 0.0 4.8 0.00 0.00 0.00 79 1010.5
20260506011045 10 283 0.0 4.8 0.00 0.00 0.00 79 1010.6
20260506010545 10 0 0.0 4.8 0.00 0.00 0.00 78 1010.6
20260506010053 10 0 0.0 6.4 0.00 0.00 0.00 78 1010.6
20260506005544 10 296 0.0 9.7 0.00 0.00 0.00 78 1010.6
20260506005045 10 0 1.6 9.7 0.00 0.00 0.00 78 1010.7
20260506004550 10 300 1.6 9.7 0.00 0.00 0.00 78 1010.6
20260506004045 10 318 0.0 4.8 0.00 0.00 0.00 79 1010.8
20260506003546 10 0 0.0 6.4 0.00 0.00 0.00 79 1010.8
20260506003056 10 309 0.0 6.4 0.00 0.00 0.00 79 1010.9
20260506002545 10 0 0.0 9.7 0.00 0.00 0.00 79 1011.0
20260506002045 10 294 0.0 9.7 0.00 0.00 0.00 79 1011.0
20260506001602 10 0 1.6 9.7 0.00 0.00 0.00 79 1010.9
20260506001048 10 314 0.0 4.8 0.00 0.00 0.00 79 1010.9
20260506000545 10 0 0.0 4.8 0.00 0.00 0.00 80 1010.9
20260506000119 10 0 0.0 4.8 0.00 0.00 0.00 80 1010.9
20260505235545 10 0 0.0 4.8 0.00 0.00 0.00 80 1011.0
20260505235045 10 0 0.0 4.8 0.00 0.00 0.00 80 1011.0
20260505234549 10 305 0.0 4.8 0.00 0.00 0.00 80 1011.0
20260505234044 10 312 0.0 3.2 0.00 0.00 0.00 80 1011.2
20260505233547 10 0 0.0 3.2 0.00 0.00 0.00 80 1011.3
20260505233053 10 302 0.0 3.2 0.00 0.00 0.00 81 1011.3
20260505232545 10 313 0.0 4.8 0.00 0.00 0.00 81 1011.3
20260505232045 10 290 0.0 4.8 0.00 0.00 0.00 81 1011.3
20260505231554 10 0 0.0 6.4 0.00 0.00 0.00 81 1011.3
20260505231045 10 0 0.0 6.4 0.00 0.00 0.00 81 1011.4
20260505230545 10 306 0.0 6.4 0.00 0.00 0.00 81 1011.3
20260505230055 10 0 0.0 6.4 0.00 0.00 0.00 81 1011.3
20260505225545 10 0 0.0 3.2 0.00 0.00 0.00 82 1011.4
20260505225046 10 0 0.0 3.2 0.00 0.00 0.00 82 1011.4
20260505224558 10 0 0.0 3.2 0.00 0.00 0.00 82 1011.5
20260505224045 10 0 0.0 3.2 0.00 0.00 0.00 82 1011.5
20260505223545 10 0 0.0 3.2 0.00 0.00 0.00 82 1011.5
20260505223105 10 0 0.0 3.2 0.00 0.00 0.00 82 1011.6
20260505222548 10 0 0.0 3.2 0.00 0.00 0.00 82 1011.7
20260505222047 10 0 0.0 4.8 0.00 0.00 0.00 82 1011.7
20260505221559 10 0 0.0 4.8 0.00 0.00 0.00 82 1011.7
20260505221044 10 0 0.0 4.8 0.00 0.00 0.00 82 1011.7
20260505220545 10 0 0.0 4.8 0.00 0.00 0.00 82 1011.7
20260505220103 10 0 0.0 4.8 0.00 0.00 0.00 82 1011.8
20260505215548 10 0 0.0 3.2 0.00 0.00 0.00 82 1011.7
20260505215045 10 0 0.0 4.8 0.00 0.00 0.00 82 1011.7
20260505214601 10 0 0.0 4.8 0.00 0.00 0.00 82 1011.8
20260505214048 10 0 0.0 1.6 0.00 0.00 0.00 81 1011.9
20260505213545 10 0 0.0 3.2 0.00 0.00 0.00 81 1011.9
20260505213053 10 0 0.0 3.2 0.00 0.00 0.00 80 1011.9
20260505212548 10 0 0.0 4.8 0.00 0.00 0.00 80 1011.9
20260505212048 10 0 0.0 4.8 0.00 0.00 0.00 79 1011.8
20260505211621 10 0 0.0 4.8 0.00 0.00 0.00 79 1011.8
20260505211047 10 308 0.0 4.8 0.00 0.00 0.00 78 1011.8
20260505210546 10 0 0.0 8.0 0.00 0.00 0.00 78 1011.9
20260505210050 10 0 0.0 11.3 0.00 0.00 0.00 77 1012.0
20260505205548 10 0 0.0 11.3 0.00 0.00 0.00 77 1012.0
20260505205048 10 0 0.0 4.8 0.00 0.00 0.00 76 1012.0
20260505204602 10 0 0.0 4.8 0.00 0.00 0.00 76 1012.1
20260505204047 10 0 0.0 4.8 0.00 0.00 0.00 75 1012.2
20260505203544 10 310 0.0 4.8 0.00 0.00 0.00 74 1012.1
20260505203052 10 0 0.0 3.2 0.00 0.00 0.00 74 1012.2
20260505202544 10 0 0.0 3.2 0.00 0.00 0.00 74 1012.1
20260505202047 10 0 0.0 8.0 0.00 0.00 0.00 73 1012.2
20260505201549 10 0 0.0 8.0 0.00 0.00 0.00 73 1012.2
20260505201049 10 0 0.0 8.0 0.00 0.00 0.00 73 1012.1
20260505200548 11 0 0.0 4.8 0.00 0.00 0.00 73 1012.2
20260505200054 11 0 1.6 4.8 0.00 0.00 0.00 73 1012.1
20260505195548 11 0 0.0 4.8 0.00 0.00 0.00 73 1012.1
20260505195050 11 308 1.6 6.4 0.00 0.00 0.00 73 1012.0
20260505194549 11 0 0.0 6.4 0.00 0.00 0.00 73 1012.0
20260505194048 11 0 0.0 4.8 0.00 0.00 0.00 73 1011.9
20260505193549 11 0 0.0 4.8 0.00 0.00 0.00 73 1011.9
20260505193052 11 316 0.0 4.8 0.00 0.00 0.00 73 1011.8
20260505192547 11 317 0.0 4.8 0.00 0.00 0.00 73 1011.8
20260505192044 11 0 1.6 4.8 0.00 0.00 0.00 73 1011.8
20260505191603 11 306 0.0 4.8 0.00 0.00 0.00 74 1011.7
20260505191044 11 0 0.0 4.8 0.00 0.00 0.00 74 1011.7
20260505190546 11 307 0.0 4.8 0.00 0.00 0.00 74 1011.7
20260505190058 11 294 0.0 3.2 0.00 0.00 0.00 74 1011.6
20260505185548 11 0 0.0 6.4 0.00 0.00 0.00 74 1011.7
20260505185044 11 0 0.0 6.4 0.00 0.00 0.00 75 1011.6
20260505184552 11 303 0.0 6.4 0.00 0.00 0.00 75 1011.6
20260505184046 11 324 0.0 6.4 0.00 0.00 0.00 75 1011.6
20260505183548 11 317 0.0 4.8 0.00 0.00 0.00 75 1011.6
20260505183051 11 0 0.0 4.8 0.00 0.00 0.00 74 1011.6
20260505182548 11 301 1.6 4.8 0.00 0.00 0.00 74 1011.5
20260505182045 12 308 0.0 4.8 0.00 0.00 0.00 75 1011.5
20260505181639 12 155 0.0 6.4 0.00 0.00 0.00 75 1011.5
20260505181051 12 291 1.6 6.4 0.00 0.00 0.00 74 1011.5
20260505180544 12 0 1.6 6.4 0.00 0.00 0.00 74 1011.5
20260505175547 12 306 1.6 6.4 0.00 0.00 0.00 74 1011.5
20260505175048 12 287 1.6 6.4 0.00 0.00 0.00 74 1011.5
20260505174550 12 0 0.0 6.4 0.00 0.00 0.00 73 1011.5
20260505174044 12 0 0.0 9.7 0.00 0.00 0.00 73 1011.5
20260505173548 12 303 1.6 9.7 0.00 0.00 0.00 73 1011.6
20260505173051 12 74 0.0 6.4 0.00 0.00 0.00 73 1011.6
20260505172547 12 0 1.6 6.4 0.00 0.00 0.00 73 1011.6
20260505172048 13 325 1.6 11.3 0.00 0.00 0.00 72 1011.7
20260505171559 13 0 1.6 11.3 0.00 0.00 0.00 72 1011.7
20260505171049 13 0 1.6 11.3 0.00 0.00 0.00 72 1011.6
20260505170545 13 0 0.0 6.4 0.00 0.00 0.00 72 1011.6
20260505170054 13 0 1.6 9.7 0.00 0.00 0.00 71 1011.5
20260505165548 13 0 1.6 9.7 0.00 0.00 0.00 70 1011.6
20260505165048 13 0 1.6 9.7 0.00 0.00 0.00 71 1011.6
20260505164551 13 0 1.6 9.7 0.00 0.00 0.00 71 1011.6
20260505164049 13 290 1.6 6.4 0.00 0.00 0.00 72 1011.8
20260505163546 13 0 1.6 9.7 0.00 0.00 0.00 72 1011.7
20260505163052 13 0 0.0 9.7 0.00 0.00 0.00 72 1011.8
20260505162545 13 293 1.6 9.7 0.00 0.00 0.00 72 1011.7
20260505162047 13 0 1.6 9.7 0.00 0.00 0.00 71 1011.7
20260505161551 13 0 0.0 6.4 0.00 0.00 0.00 72 1011.7
20260505161047 13 0 1.6 6.4 0.00 0.00 0.00 72 1011.6
20260505160549 13 356 1.6 6.4 0.00 0.00 0.00 71 1011.7
20260505153056 14 345 3.2 16.1 0.00 0.00 0.00 68 1011.8
20260505152546 15 0 1.6 16.1 0.00 0.00 0.00 67 1011.8
20260505152047 15 306 0.0 16.1 0.00 0.00 0.00 66 1011.9
20260505151551 15 0 1.6 11.3 0.00 0.00 0.00 67 1011.9
20260505151050 14 258 1.6 11.3 0.00 0.00 0.00 68 1011.8
20260505150548 14 0 1.6 11.3 0.00 0.00 0.00 68 1011.8
20260505140548 14 0 1.6 9.7 0.00 0.00 0.00 67 1012.1
20260505124554 14 270 1.6 9.7 0.00 0.00 0.00 69 1012.5
20260505124047 14 296 0.0 9.7 0.00 0.00 0.00 69 1012.7
20260505123546 14 316 1.6 9.7 0.00 0.00 0.00 69 1012.5
20260505123059 14 0 3.2 9.7 0.00 0.00 0.00 68 1012.5
20260505122547 14 0 0.0 9.7 0.00 0.00 0.00 70 1012.6
20260505122046 14 187 1.6 9.7 0.00 0.00 0.00 69 1012.7
20260505121557 14 0 0.0 6.4 0.00 0.00 0.00 70 1012.7
20260505121046 14 0 0.0 11.3 0.00 0.00 0.00 70 1012.7
20260505120546 14 292 0.0 11.3 0.00 0.00 0.00 71 1012.7
20260505120110 13 299 1.6 11.3 0.00 0.00 0.00 70 1012.8
20260505115546 13 278 1.6 11.3 0.00 0.00 0.00 70 1012.8
20260505115047 13 305 0.0 12.9 0.00 0.00 0.00 71 1012.8
20260505114554 13 283 3.2 12.9 0.00 0.00 0.00 70 1012.7
20260505114049 13 310 1.6 9.7 0.00 0.00 0.00 70 1012.7
20260505113551 13 317 1.6 6.4 0.00 0.00 0.00 71 1012.7
20260505113052 13 0 0.0 6.4 0.00 0.00 0.00 70 1012.8
20260505112548 13 301 0.0 9.7 0.00 0.00 0.00 71 1012.8
20260505112047 13 0 0.0 9.7 0.00 0.00 0.00 71 1012.8
20260505111552 13 296 0.0 1.6 0.00 0.00 0.00 72 1012.7
20260505111047 13 0 0.0 0.0 0.00 0.00 0.00 74 1012.7
20260505110548 12 0 0.0 3.2 0.00 0.00 0.00 74 1012.7
20260505110108 12 0 0.0 12.9 0.00 0.00 0.00 75 1012.7
20260505102044 11 0 0.0 4.8 0.00 0.00 0.00 78 1013.3
20260505101602 11 0 0.0 3.2 0.00 0.00 0.00 79 1013.3
20260505101045 11 0 0.0 3.2 0.00 0.00 0.00 79 1013.3
20260505100547 11 0 0.0 4.8 0.00 0.00 0.00 80 1013.2
20260505100057 11 0 0.0 4.8 0.00 0.00 0.00 80 1013.2
20260505095546 11 0 0.0 4.8 0.00 0.00 0.00 80 1013.2
20260505095045 11 0 0.0 4.8 0.00 0.00 0.00 80 1013.4
20260505094550 11 0 0.0 6.4 0.00 0.00 0.00 80 1013.3
20260505094048 11 0 0.0 6.4 0.00 0.00 0.00 81 1013.3
20260505093544 11 0 0.0 3.2 0.00 0.00 0.00 82 1013.4
20260505093053 11 0 0.0 6.4 0.00 0.00 0.00 82 1013.4
20260505092544 11 0 0.0 6.4 0.00 0.00 0.00 82 1013.4
20260505092046 11 294 0.0 6.4 0.00 0.00 0.00 82 1013.4
20260505091557 11 0 0.0 6.4 0.00 0.00 0.00 82 1013.3
20260505091046 10 0 0.0 3.2 0.00 0.00 0.00 83 1013.4
20260505090547 10 0 0.0 3.2 0.00 0.00 0.00 85 1013.4
20260505090051 10 0 0.0 4.8 0.00 0.00 0.00 86 1013.3
20260505085546 10 0 0.0 6.4 0.00 0.00 0.00 86 1013.3
20260505085045 10 0 0.0 8.0 0.00 0.00 0.00 86 1013.2
20260505084602 10 0 0.0 8.0 0.00 0.00 0.00 87 1013.2
20260505084044 10 0 0.0 4.8 0.00 0.00 0.00 87 1013.3
20260505083544 10 0 0.0 4.8 0.00 0.00 0.00 87 1013.2
20260505083110 10 0 0.0 4.8 0.00 0.00 0.00 88 1013.3
20260505082547 10 0 0.0 3.2 0.00 0.00 0.00 88 1013.5
20260505082047 10 0 0.0 3.2 0.00 0.00 0.00 89 1013.5
20260505081554 10 0 0.0 6.4 0.00 0.00 0.00 89 1013.5
20260505081048 10 0 0.0 6.4 0.00 0.00 0.00 89 1013.6
20260505080547 10 0 0.0 3.2 0.00 0.00 0.00 90 1013.5
20260505080054 9 0 0.0 3.2 0.00 0.00 0.00 90 1013.6
20260505075551 9 0 0.0 3.2 0.00 0.00 0.00 90 1013.6
20260505075045 9 0 0.0 3.2 0.00 0.00 0.00 91 1013.6
20260505074554 9 0 0.0 3.2 0.00 0.00 0.00 91 1013.7
20260505074045 9 0 0.0 3.2 0.00 0.00 0.00 91 1013.8
20260505073545 9 0 0.0 3.2 0.00 0.00 0.00 92 1013.7
20260505073059 9 0 0.0 4.8 0.00 0.00 0.00 92 1013.9
20260505072544 9 0 0.0 4.8 0.00 0.00 0.00 92 1013.8
20260505072045 9 0 0.0 4.8 0.00 0.00 0.00 92 1013.9
20260505071555 9 0 0.0 4.8 0.00 0.00 0.00 92 1013.9
20260505071045 9 0 0.0 4.8 0.00 0.00 0.00 92 1013.8
20260505070544 8 0 0.0 4.8 0.00 0.00 0.00 92 1013.8
20260505070053 8 0 0.0 3.2 0.00 0.00 0.00 92 1014.0
20260505065547 8 0 0.0 3.2 0.00 0.00 0.00 92 1014.2
20260505065048 8 0 0.0 4.8 0.00 0.00 0.00 92 1014.2
20260505064624 8 0 0.0 4.8 0.00 0.00 0.00 92 1014.3
20260505064048 8 0 0.0 1.6 0.00 0.00 0.00 92 1014.2
20260505063548 8 0 0.0 8.0 0.00 0.00 0.00 92 1014.1
20260505063053 8 0 0.0 8.0 0.00 0.00 0.00 91 1014.2
20260505062549 9 82 0.0 4.8 0.00 0.00 0.00 92 1014.1
20260505062044 9 0 0.0 4.8 0.00 0.00 0.00 91 1014.2
20260505061552 9 0 0.0 4.8 0.00 0.00 0.00 91 1014.1
20260505061044 9 0 0.0 3.2 0.00 0.00 0.00 91 1014.0
20260505060544 9 0 0.0 4.8 0.00 0.00 0.00 91 1014.0
20260505060050 9 0 0.0 4.8 0.00 0.00 0.00 90 1014.0
20260505055546 9 0 0.0 3.2 0.00 0.00 0.00 90 1014.0
20260505055045 9 0 0.0 6.4 0.00 0.00 0.00 90 1013.8
20260505054558 9 0 0.0 6.4 0.00 0.00 0.00 90 1013.8
20260505054044 9 0 0.0 3.2 0.00 0.00 0.00 90 1013.8
20260505053544 9 0 0.0 3.2 0.00 0.00 0.00 90 1013.8
20260505053048 9 0 0.0 3.2 0.00 0.00 0.00 89 1013.7
20260505052545 9 0 0.0 3.2 0.00 0.00 0.00 89 1013.7
20260505052048 9 0 0.0 3.2 0.00 0.00 0.00 89 1013.6
20260505051552 9 0 0.0 3.2 0.00 0.00 0.00 89 1013.5
20260505051044 9 0 0.0 3.2 0.00 0.00 0.00 89 1013.5
20260505050544 9 0 0.0 3.2 0.00 0.00 0.00 89 1013.6